Location: Antioch Church
(34.9543°N, 88.5145°W)
Time: 18:48:01
(UTC+00:00)

COSMO-SKYMED 1 - Pass Details

Date: 11 December 2019
Orbit: 621 x 623 km, 97.9° (Epoch: 29 January)

Event Time Altitude Azimuth Distance (km) Brightness Sun altitude
Rises 10:49:30 0° 153° (SSE) 2,888 6.5 -24.3°
Reaches altitude 10° 10:51:44 10° 148° (SSE) 1,986 5.7 -23.9°
Maximum altitude 10:55:54 48° 74° (ENE) 815 3.4 -23.0°
Enters shadow 10:59:35 13° 2° (N) 1,803 4.8 -22.3°
